Location: Wawayanda State Park
(41.1833°N, 74.4333°W)
Time: 03:24:26
(UTC-04:00)

Daily predictions for brighter satellites

Satellite Brightness Start Highest point End
(mag) Time Altitude Azimuth Time Altitude Azimuth Time Altitude Azimuth
Cosmos 1766 Rocket 3.7 00:06:17 75° N 00:06:17 75° N 00:10:25 10° N
Cosmos 1867 3.4 00:08:44 78° S 00:09:03 84° ESE 00:14:34 10° NNE
Cosmos 2266 Rocket 4.5 00:09:11 43° ESE 00:10:06 46° E 00:16:10 10° NNE
Cosmos 1328 Rocket 4.2 00:06:13 10° N 00:10:01 46° ENE 00:10:01 46° ENE
Meteor 1-24 Rocket 3.9 00:10:30 57° SW 00:11:41 73° W 00:17:35 10° N
H-2A R/B 4.0 00:14:20 15° WSW 00:15:25 16° W 00:18:30 10° NW
In-Cosmos 22 4.4 00:15:25 53° ESE 00:15:38 53° E 00:21:09 10° NNE
S3M 3.8 00:09:36 10° N 00:15:51 88° W 00:16:50 66° S
Cosmos 1428 Rocket 4.4 00:17:37 64° SSW 00:18:40 86° W 00:24:55 10° N
Cosmos 468 Rocket 4.3 00:16:14 10° NNW 00:21:20 54° WSW 00:21:20 54° WSW
Lacrosse 5 2.8 00:17:21 10° NW 00:22:11 43° NE 00:23:42 34° E
USA 234 4.3 00:24:29 27° WSW 00:24:29 27° WSW 00:29:48 10° WNW
NOSS 3-2 (A) 4.3 00:22:47 19° WSW 00:27:05 47° NW 00:33:34 10° NNE
Cosmos 1515 Rocket 4.1 00:23:13 10° N 00:27:06 54° NE 00:27:06 54° NE
Cosmos 1814 Rocket 4.4 00:27:09 10° NNW 00:32:11 50° W 00:32:11 50° W
Helios 1A Rocket 3.9 00:30:17 10° NNE 00:33:12 42° NE 00:33:12 42° NE
Cosmos 2344 3.5 00:35:51 49° SSW 00:38:16 80° ESE 00:46:59 10° NE
Timation 2 Rocket 4.5 00:37:11 40° SW 00:39:42 63° WNW 00:46:27 10° NNE
Genesis I 4.5 00:35:56 10° NW 00:38:29 38° NW 00:38:29 38° NW
Cosmos 2369 3.8 00:35:06 10° NNW 00:40:39 57° WSW 00:40:41 57° WSW
Cosmos 836 Rocket 4.4 00:38:43 10° NNW 00:43:57 75° ENE 00:44:03 75° E
Cosmos 540 Rocket 4.3 00:43:22 10° N 00:48:15 40° ENE 00:49:03 38° E
BREEZE-M TANK 3.8 00:31:38 10° SW 00:49:56 65° SSE 00:54:01 10° ENE
Cosmos 2228 Rocket 4.1 00:46:56 10° NNW 00:50:23 39° WNW 00:50:23 39° WNW
CZ-2C R/B 4.4 00:49:56 29° E 00:51:32 35° ENE 00:56:41 10° N
CZ-4C R/B 3.8 00:48:42 14° W 00:52:39 32° NW 00:58:04 10° NNE
Cosmos 1980 Rocket 3.0 00:48:40 10° NNW 00:54:05 45° ENE 00:55:32 38° E
Cosmos 1763 Rocket 3.8 00:50:38 10° NNW 00:55:33 56° W 00:55:33 56° W
Cosmos 2151 4.0 00:57:24 41° NE 00:57:24 41° NE 01:00:36 10° NNE
Meteor 1-21 Rocket 4.2 01:00:00 67° WSW 01:00:31 72° W 01:06:11 10° N
Aureole 1 Rocket 3.8 01:02:57 10° NNW 01:07:56 73° ENE 01:08:45 63° SE
Cosmos 1151 Rocket 3.5 01:03:54 10° N 01:07:19 57° NNW 01:07:19 57° NNW
ALOS 2 4.0 01:09:34 30° WNW 01:09:34 30° WNW 01:12:37 10° NNW
Cosmos 1908 4.4 01:05:09 10° N 01:07:44 41° NNW 01:07:44 41° NNW
CZ-4B R/B 3.8 01:11:20 21° NW 01:11:20 21° NW 01:13:01 10° NW
Meteor 2-20 Rocket 4.4 01:10:31 61° SW 01:11:25 70° W 01:17:36 10° N
Cosmos 1300 4.4 01:09:17 10° NNE 01:12:04 28° ENE 01:12:04 28° ENE
Cosmos 1697 Rocket 2.5 01:07:08 10° NNW 01:12:49 80° WSW 01:13:03 78° SW
ISS -0.9 01:11:10 10° NW 01:13:34 23° NNE 01:13:34 23° NNE
CENTAUR R/B 2.4 01:16:43 65° SSW 01:17:45 88° ESE 01:24:38 10° NE
Cosmos 2082 Rocket 2.8 01:16:39 41° W 01:17:50 47° WNW 01:23:20 10° NNE
ATLAS 5 CENTAUR R/B 4.1 01:18:56 13° E 01:18:56 13° E 01:20:37 10° ENE
Cosmos 1833 Rocket 2.9 01:17:26 54° W 01:18:14 60° WNW 01:23:50 10° NNE
H-2A R/B 4.3 01:15:37 10° NNW 01:18:16 21° WNW 01:18:16 21° WNW
Cosmos 1726 4.0 01:17:11 10° NNE 01:19:46 25° ENE 01:19:46 25° ENE
Cosmos 1441 Rocket 4.3 01:22:02 42° NNW 01:22:02 42° NNW 01:24:55 10° N
Cosmos 1656 4.2 01:22:00 10° NW 01:27:08 45° W 01:27:08 45° W
ASTEX 1 3.5 01:31:36 10° NNE 01:36:33 66° E 01:36:38 65° E
Lacrosse 5 rocket 2.1 01:33:21 10° NW 01:37:36 54° NE 01:38:02 51° ENE
Cosmos 1674 4.2 01:38:42 30° NW 01:38:42 30° NW 01:41:11 10° N
Cosmos 1437 Rocket 4.2 01:34:28 10° NNW 01:36:49 30° NW 01:36:49 30° NW
Sich 1 3.6 01:39:15 53° ENE 01:39:15 53° ENE 01:43:15 10° NNE
Cosmos 968 Rocket 3.7 01:39:55 56° ESE 01:39:59 56° ESE 01:45:01 10° NNE
CZ-2C R/B 2.8 01:36:58 10° N 01:42:24 61° WNW 01:43:03 57° WSW
PSLV R/B 4.4 01:44:04 60° NNW 01:44:04 60° NNW 01:47:31 10° NNW
Cosmos 2360 4.1 01:46:51 10° NNW 01:52:36 88° WSW 01:53:30 65° SSE
Cosmos 371 Rocket 3.2 01:49:06 10° NNW 01:53:58 77° ENE 01:54:15 74° ESE
USA 32 4.3 01:51:57 10° NNW 01:57:04 53° W 01:57:14 52° W
SL-16 R/B 2.6 01:55:52 10° NNW 02:01:31 60° ENE 02:03:55 33° SE
Cosmos 1745 Rocket 3.9 02:00:50 56° S 02:02:20 90° W 02:08:42 10° N
Lacrosse 5 3.4 02:00:29 10° WNW 02:02:51 24° W 02:02:51 24° W
Cosmos 2058 3.7 02:05:34 42° WNW 02:05:34 42° WNW 02:09:04 10° N
Nadezhda 1 Rocket 3.9 02:00:56 10° N 02:07:06 84° E 02:08:46 51° SSE
Cosmos 2322 Rocket 2.2 02:05:15 10° NNW 02:10:54 77° ENE 02:12:46 44° SE
Meteor 2-10 4.2 02:13:13 10° N 02:18:31 73° ENE 02:20:05 47° SSE
Meteor 1-4 Rocket 3.0 02:16:06 10° N 02:19:43 60° ENE 02:19:43 60° ENE
Cosmos 1538 Rocket 4.0 02:15:23 10° NNW 02:20:34 62° WSW 02:20:55 60° SW
Cosmos 923 Rocket 4.2 02:19:04 10° NNW 02:24:19 66° ENE 02:26:25 35° SE
SL-14 R/B 4.3 02:27:34 36° WNW 02:27:34 36° WNW 02:30:39 10° N
Cosmos 773 Rocket 3.9 02:23:06 10° NNW 02:28:16 88° ENE 02:29:35 52° SSE
Cosmos 1777 Rocket 3.9 02:28:51 59° SSW 02:29:52 84° WNW 02:35:12 10° NNE
CZ-2C R/B 4.1 02:31:01 33° WSW 02:31:19 33° W 02:36:28 10° NNW
Cosmos 1680 Rocket 3.9 02:26:45 10° NNW 02:31:54 59° ENE 02:34:46 26° SE
NPP 4.0 02:28:01 10° NNE 02:33:21 59° E 02:35:03 40° SSE
Cosmos 1271 Rocket 2.7 02:30:41 10° N 02:34:09 74° NNW 02:34:09 74° NNW
ERS-2 2.4 02:31:00 10° NNE 02:34:37 61° E 02:34:37 61° E
Cosmos 2292 Rocket 4.1 02:34:34 36° E 02:34:44 36° E 02:38:19 10° NNE
Cosmos 1980 Rocket 3.4 02:33:15 10° NW 02:37:16 25° W 02:37:16 25° W
Cosmos 1703 3.7 02:38:10 51° WNW 02:38:10 51° WNW 02:41:50 10° N
Cosmos 2360 Rocket 3.1 02:33:25 10° NNW 02:38:52 47° ENE 02:44:17 10° SE
Cosmos 1869 3.5 02:35:26 10° N 02:39:25 66° E 02:39:56 58° SE
USA 215 3.6 02:33:37 10° NE 02:39:57 50° SE 02:42:14 36° S
Cosmos 1633 Rocket 4.1 02:41:33 31° W 02:41:43 31° WNW 02:45:41 10° NNW
JB-3 4.3 02:40:55 10° N 02:44:51 65° WNW 02:44:57 65° W
CBERS-1 4.2 02:40:57 10° NNE 02:46:02 63° E 02:47:47 39° SSE
PSLV R/B 3.9 02:41:56 10° N 02:46:20 51° WNW 02:46:56 47° W
ARIANE 5 R/B 4.1 02:47:43 10° NE 02:52:03 28° E 02:55:07 16° SE
IRS-1C 4.5 02:47:03 10° NNE 02:52:20 59° E 02:54:37 33° SSE
Cosmos 1726 4.3 02:53:03 10° NW 02:54:26 15° WNW 02:54:26 15° WNW
Resurs 1-4 Rocket 4.0 02:51:24 10° NE 02:55:34 23° E 02:59:42 10° SE
IRAS Rocket 4.4 02:56:02 10° N 03:01:25 59° WNW 03:03:25 37° SW
ATLAS 5 CENTAUR R/B 1.9 03:00:29 44° SW 03:02:01 73° NW 03:07:17 10° NNE
Cosmos 2219 4.0 02:59:21 26° SSE 03:02:10 45° ESE 03:07:37 10° NE
Cosmos 1703 Rocket 3.9 02:58:40 10° N 03:03:00 62° E 03:05:05 29° SSE
Cosmos 2322 3.9 02:58:14 10° NNW 03:03:59 74° ENE 03:09:42 10° SSE
Cosmos 1470 Rocket 4.4 03:04:26 34° W 03:05:03 35° WNW 03:09:07 10° N
IRS-P3 4.3 03:01:26 10° N 03:06:42 59° WNW 03:08:40 37° SW
SAR-Lupe-3 4.5 03:07:35 54° SSE 03:08:19 84° ENE 03:11:55 10° NNW
Cosmos 1933 Rocket 4.5 03:08:34 31° W 03:09:14 33° WNW 03:13:15 10° N
CENTAUR R/B 4.4 03:04:20 10° W 03:09:25 24° NNW 03:15:00 10° NNE
SL-08 R/B 3.4 03:09:01 39° SSW 03:10:39 62° W 03:15:33 10° NNW
Okean 1-7 3.8 03:09:58 10° N 03:14:15 50° E 03:17:32 16° SSE
Cosmos 1455 3.0 03:11:43 10° NNW 03:15:01 33° W 03:15:01 33° W
Lacrosse 5 rocket 3.7 03:13:14 10° WNW 03:13:42 12° WNW 03:13:42 12° WNW
Cosmos 2181 Rocket 4.1 03:11:48 10° NNW 03:17:52 61° W 03:21:09 28° SSW
Cosmos 1626 3.1 03:18:21 32° W 03:18:38 32° WNW 03:22:03 10° NNW
ADEOS 3.5 03:16:40 10° NNE 03:21:55 86° WNW 03:24:36 30° SSW
Cosmos 1933 3.2 03:20:01 10° NNW 03:24:02 71° W 03:25:27 38° S
OAO 3 Rocket 4.1 03:26:06 27° S 03:26:06 27° S 03:29:18 10° SE
Cosmos 2150 Rocket 4.2 03:23:42 27° S 03:26:38 71° ESE 03:32:01 10° NNE
Cosmos 2112 Rocket 4.2 03:22:41 10° NNW 03:27:43 51° WSW 03:30:11 28° SSW
BREEZE-M DEB (TANK) 4.4 03:24:12 10° WNW 03:34:14 55° N 03:37:47 10° E
Cosmos 1346 4.3 03:37:22 28° W 03:37:30 28° WNW 03:40:12 10° NNW
COSMOS 2428 3.0 03:32:39 10° NNW 03:38:20 70° ENE 03:43:59 10° SSE
USA 129 4.3 03:38:34 14° ENE 03:38:34 14° ENE 03:39:21 10° NNE
Cosmos 304 Rocket 4.4 03:34:20 10° NW 03:38:45 36° WSW 03:40:21 28° SW
Cosmos 1892 4.5 03:36:34 10° SSE 03:39:57 29° E 03:43:20 10° NNE
Cosmos 2074 Rocket 4.0 03:37:02 21° SSW 03:41:19 77° W 03:47:36 10° N
ATLAS CENTAUR R/B 1.5 03:37:15 10° NNW 03:41:57 87° WSW 03:46:14 10° SSE
USA 161 2.1 03:43:22 30° WNW 03:43:22 30° WNW 03:45:02 10° NNW
SL-16 R/B 3.6 03:41:13 10° WNW 03:45:04 19° W 03:45:44 19° WSW
H-2A R/B 4.4 03:12:06 10° W 03:45:04 36° SW 03:50:48 10° SSE
USA 229 DEB 3.7 03:40:56 23° SW 03:45:35 85° NW 03:52:37 10° NE
USA 229 3.7 03:41:02 23° SW 03:45:40 86° WNW 03:52:44 10° NE
Cosmos 2237 Rocket 4.3 03:42:43 10° N 03:47:38 29° NE 03:52:34 10° ESE
GPS 2-05 Rocket1 4.0 03:50:39 24° S 03:50:39 24° S 03:53:01 10° SE
Cosmos 2184 Rocket 4.1 03:46:16 20° SSW 03:50:52 68° W 03:57:11 10° N
Cosmos 2322 Rocket 3.9 03:51:24 10° WNW 03:54:11 14° W 03:54:32 14° W
CZ-2D R/B 2.2 03:51:21 10° NNE 03:56:38 80° ESE 04:01:23 13° S
UNK 3.7 03:52:24 10° SSE 03:56:59 86° WSW 04:01:35 10° NNW
Cosmos 292 Rocket 3.8 03:52:54 10° NNW 03:57:44 86° ENE 04:02:30 10° SSE
Cosmos 2219 Rocket 3.1 03:53:19 10° NNW 03:58:46 50° ENE 04:04:11 10° SE
MOS 1-B 4.4 03:53:38 10° NNE 03:59:27 80° ESE 04:04:54 12° SSW
Cosmos 990 Rocket 4.2 03:55:09 15° S 03:59:28 66° ESE 04:04:35 10° NNE
Okean O Rocket 2.9 03:56:14 10° NNE 04:00:21 37° E 04:04:26 10° SSE
Cosmos 2237 4.2 03:54:56 10° NNW 04:00:40 76° WSW 04:06:23 10° SSE
BREEZE-M DEB (TANK) 3.6 03:52:16 17° SW 04:01:06 67° SSE 04:04:49 10° ENE
FALCON 9 R/B 2.1 04:02:02 15° SSE 04:02:02 15° SSE 04:02:56 10° SE
CRYOSAT 2 4.4 03:56:43 10° N 04:01:31 62° W 04:05:17 16° SSW
ATLAS 2A CENTAUR R/B 4.3 03:56:24 17° SSW 04:02:43 40° SSE 04:44:05 10° E
AVUM R/B 2.9 04:03:27 29° SSE 04:04:10 45° ESE 04:06:14 10° NE
Meteor 2-10 Rocket 4.0 04:00:15 10° N 04:05:18 61° ENE 04:10:30 10° SSE
SL-16 R/B 2.5 03:59:29 10° S 04:05:42 69° WSW 04:11:59 10° NNW
CZ-2D R/B 4.0 04:03:32 10° NNE 04:07:35 54° E 04:11:30 10° S
UNKNOWN OBJECT B 2.8 04:04:48 10° NNE 04:08:40 79° ESE 04:12:15 12° S
MTI 3.8 04:07:09 10° S 04:10:28 70° WSW 04:13:50 10° NNW
SL-24 DEB 4.3 04:06:37 10° N 04:11:17 81° E 04:15:52 10° S
Meteor 2-3 Rocket 3.9 04:14:49 13° SSW 04:19:59 60° WNW 04:25:45 10° N
Cosmos 2360 Rocket 3.3 04:18:05 10° NW 04:22:31 24° WSW 04:26:51 10° SSW
USA 215 3.8 04:16:40 10° NE 04:22:57 52° NNW 04:29:14 10° WSW
Cosmos 220 Rocket 4.0 04:20:02 14° SSW 04:23:43 73° WNW 04:28:03 10° NNE
Iridium 4 Rocket 4.5 04:21:21 10° NNE 04:25:17 37° E 04:29:09 10° SSE
Cosmos 2227 Rocket 2.7 04:22:47 10° S 04:28:18 59° ESE 04:33:52 10° NNE
DELTA 2 R/B (1) 4.3 04:23:52 13° SW 04:28:23 41° SSE 04:33:37 10° E
ARIANE 5 R/B 3.4 04:26:38 10° N 04:31:11 34° WNW 04:35:28 11° SW
Okean-O 4.4 04:30:26 10° NE 04:34:23 30° E 04:38:17 10° SSE
Resurs 1-4 Rocket 2.6 04:30:32 10° N 04:35:35 45° WNW 04:40:38 10° SW
CZ-4B R/B 3.4 04:32:51 10° NNE 04:38:22 76° ESE 04:43:57 10° S
Cosmos 1733 Rocket 3.3 04:35:39 10° SSW 04:39:52 50° W 04:44:09 10° N
Cosmos 1937 Rocket 4.4 04:39:01 10° SW 04:43:50 36° WNW 04:48:43 10° N
Cosmos 2219 4.5 04:41:36 10° WSW 04:46:30 28° NW 04:51:26 10° N
Thor Agena Rocket 3.6 04:41:14 10° S 04:46:31 77° WSW 04:51:49 10° NNW
Cosmos 1408 4.1 04:43:20 10° SSE 04:46:46 38° E 04:50:15 10° NNE
Cosmos 1125 Rocket 3.7 04:42:09 10° SSW 04:47:25 78° ESE 04:52:44 10° NNE
SL-23 DEB 3.9 04:44:25 10° WNW 04:47:41 54° SW 04:52:25 10° SE
ATLAS 5 CENTAUR R/B 4.1 04:44:43 10° WNW 04:47:45 15° NNW 04:50:55 10° N
Cosmos 1606 3.1 04:45:31 10° N 04:49:17 69° E 04:53:03 10° SSE
PSLV R/B 4.0 04:45:49 10° N 04:49:45 61° WNW 04:53:46 10° SSW
NOSS 0 Rocket 3.9 04:45:22 10° NNW 04:51:29 71° WSW 04:57:35 10° SSE
Meteor 1-10 Rocket 4.4 04:47:17 10° NNW 04:52:55 58° W 04:58:36 10° S
Coronas F rocket 1.6 04:50:56 10° SSW 04:53:35 48° W 04:56:16 10° N
